Simultaneous Nadir Overpasses (SNOs) Predictions

Prediction of SNOs between AQUA and GOES-15 Satellite Orbit:

Table of predicted SNOs for the next 14.0 days since TLE Epoch: 4/20/2017
Index Date Time (AQUA) AQUA Lat,Lon GOES-15 Lat,Lon Distance(km) Time Diff (sec)
1 04/22/2017 10:19:52 -0.81,-131.19 0.08,-135.46 485.42 80
2 04/22/2017 22:41:16 -0.27,-136.38 -0.07,-135.51 99.34 80
3 04/24/2017 22:29:04 0.36,-133.42 -0.07,-135.50 236.25 80
4 04/25/2017 10:50:20 0.73,-138.58 0.07,-135.45 356.23 80
5 04/27/2017 10:38:08 0.10,-135.63 0.07,-135.44 21.69 80
6 04/29/2017 10:25:56 -0.54,-132.67 0.07,-135.41 312.20 80
7 04/29/2017 22:47:19 -0.59,-137.86 -0.07,-135.46 273.22 80
8 05/01/2017 22:35:07 0.06,-134.90 -0.07,-135.43 59.99 80
9 05/03/2017 22:22:54 0.65,-131.94 -0.08,-135.39 392.94 80
10 05/04/2017 10:44:09 0.43,-137.10 0.07,-135.33 200.22 80




NCC Satellite Simultaneous Nadir Overpasses (SNOs) Prediction Service
